パンスターズ彗星

P/2017 R1 ( PanSTARRS )

English version
Home page
Updated on October 9, 2020

---------------------------------------------------------------------

・ プロフィール

発見日 2017年9月14日
発見光度 21.2等
発見者 Pan-STARRS 1 telescope (Haleakala)

・ 写真集

・ 軌道要素

Epoch 2017 Mar. 28.0 TT = JDT 2457840.5                                         
T 2017 Apr. 8.12279 TT                                  Rudenko                 
q   3.3272708            (2000.0)            P               Q                  
n   0.11738063     Peri.  178.36374     +0.78820699     +0.61483463             
a   4.1311576      Node   143.65294     -0.56513658     +0.74025766             
e   0.1945912      Incl.    2.57338     -0.24361933     +0.27202386             
P   8.40                                                                        
From 71 observations 2017 July 18-2018 Jan. 6, mean residual 0".4.              

・ 光度変化

        m1 = 13.5 + 5 logΔ + 10.0 log r

---------------------------------------------------------------------

軌道要素はM.P.E.C. 2020-S188に掲載されたものです。
光度グラフはComet for Windowsで作成したものです。

---------------------------------------------------------------------

Copyright(C) Seiichi Yoshida (comet@aerith.net). All rights reserved.